Precipitable_Water
0.31 0.27 0.32 0.50 0.79 0.83 0.70 0.72 0.83 1.23 1.32 1.29 1.23 1.27 1.27 1.18 1.17 1.21 1.00 1.03 1.09 1.14 1.27 1.25 1.38 1.42 1.45 1.59 1.83 2.04 1.94 1.81 1.91 1.75 1.69 1.71 1.64 1.67 1.64 1.69 1.72 1.74 1.74 1.71
0.26 0.23 0.32 0.48 0.80 0.79 0.65 0.62 0.85 1.27 1.34 1.31 1.22 1.24 1.33 1.30 1.30 1.36 1.03 1.05 1.15 1.18 1.27 1.27 1.40 1.38 1.38 1.44 1.68 1.95 2.04 1.89 1.95 1.89 1.96 1.79 1.79 1.72 1.78 1.82 1.60 1.68 1.71 1.75
0.24 0.26 0.32 0.40 0.66 0.72 0.63 0.72 0.85 0.97 1.14 1.27 1.18 1.21 1.27 1.37 1.39 1.35 1.23 1.27 1.20 1.25 1.16 1.25 1.40 1.39 1.39 1.44 1.52 1.77 2.00 1.97 1.95 2.05 1.94 1.87 1.90 1.85 1.74 1.78 1.70 1.83 1.72 1.70
0.23 0.32 0.29 0.35 0.57 0.71 0.59 0.86 0.98 1.09 0.93 0.82 1.12 0.86 1.20 1.34 1.25 1.34 1.30 1.07 1.38 1.19 1.18 1.38 1.43 1.40 1.43 1.44 1.58 1.60 1.88 2.04 1.96 1.96 1.85 1.72 1.63 1.56 1.73 1.72 1.78 1.78 1.83 1.81
0.21 0.31 0.30 0.36 0.53 0.68 0.64 0.72 0.91 1.23 0.94 0.90 0.95 0.85 1.03 1.28 1.08 1.16 1.27 1.36 1.36 1.16 1.32 1.30 1.35 1.46 1.42 1.48 1.53 1.57 1.60 1.95 2.01 2.03 1.91 1.71 1.69 1.65 1.57 1.78 1.80 1.76 1.78 1.81
0.30 0.37 0.42 0.38 0.53 0.69 0.67 0.61 0.86 0.91 0.87 0.65 0.82 0.80 0.94 0.96 1.13 1.21 1.31 1.31 1.27 1.27 1.15 1.37 1.36 1.51 1.50 1.46 1.53 1.54 1.51 1.62 1.91 2.04 1.99 1.88 1.79 1.78 1.70 1.64 1.59 1.60 1.73 1.68
0.31 0.43 0.41 0.48 0.44 0.66 0.59 0.56 0.58 0.53 0.54 0.52 0.80 0.68 0.83 1.07 1.21 1.25 1.30 1.29 1.18 1.15 1.20 1.23 1.22 1.56 1.31 1.49 1.44 1.50 1.47 1.50 1.62 1.87 2.02 1.94 1.86 1.78 1.70 1.70 1.66 1.55 1.52 1.63
0.24 0.31 0.38 0.45 0.47 0.48 0.53 0.62 0.57 0.44 0.40 0.51 0.64 0.52 0.85 1.06 1.21 1.29 1.30 1.44 1.33 1.20 1.23 1.17 1.34 1.61 1.47 1.62 1.39 1.44 1.48 1.50 1.56 1.58 1.72 1.94 1.96 1.90 1.81 1.79 1.84 1.63 1.65 1.64
0.29 0.32 0.44 0.42 0.44 0.48 0.48 0.56 0.69 0.61 0.58 0.58 0.70 0.79 0.88 0.98 1.07 1.20 1.34 1.39 1.39 1.33 1.12 1.15 1.27 1.60 1.24 1.46 1.54 1.42 1.45 1.50 1.52 1.56 1.65 1.72 1.90 2.03 1.93 1.92 1.84 1.82 1.98 1.74
0.46 0.33 0.44 0.41 0.40 0.38 0.39 0.54 0.49 0.55 0.37 0.38 0.54 0.73 0.70 0.77 0.89 1.10 1.22 1.32 1.41 1.51 1.45 1.20 1.28 1.39 1.51 1.48 1.78 1.61 1.58 1.46 1.46 1.54 1.57 1.66 1.75 1.92 2.04 2.00 1.87 1.92 1.93 1.96
0.47 0.42 0.44 0.42 0.33 0.30 0.29 0.32 0.46 0.54 0.42 0.47 0.36 0.51 1.08 0.79 0.92 0.98 1.18 1.34 1.44 1.60 1.55 1.50 1.37 1.47 1.50 1.68 1.83 1.62 1.71 1.67 1.51 1.42 1.49 1.52 1.58 1.67 1.86 2.01 2.01 2.00 2.06 1.99
0.43 0.45 0.35 0.37 0.37 0.34 0.35 0.28 0.41 0.41 0.43 0.43 0.47 0.60 1.15 1.16 1.00 1.05 1.18 1.40 1.46 1.57 1.60 1.67 1.53 1.45 1.63 1.55 1.61 1.81 1.92 1.82 1.74 1.58 1.54 1.54 1.58 1.59 1.69 1.84 2.08 2.09 2.12 2.20
0.50 0.36 0.35 0.45 0.36 0.34 0.29 0.33 0.30 0.36 0.39 0.38 0.34 0.62 0.93 1.19 1.06 1.15 1.20 1.33 1.43 1.48 1.52 1.50 1.60 1.73 1.79 1.79 1.86 1.86 1.97 2.00 2.05 2.10 1.80 1.61 1.60 1.61 1.60 1.73 1.86 2.05 2.13 2.16
0.60 0.45 0.39 0.40 0.40 0.38 0.31 0.35 0.32 0.30 0.29 0.31 0.42 0.75 0.96 1.04 1.03 1.15 1.30 1.43 1.45 1.53 1.61 1.63 1.72 1.79 1.87 1.90 1.94 1.89 1.94 2.08 2.11 2.15 2.14 1.87 1.62 1.65 1.61 1.58 1.70 1.83 2.03 2.06
0.51 0.42 0.51 0.53 0.56 0.47 0.36 0.31 0.34 0.31 0.33 0.33 0.41 0.55 0.91 0.89 0.95 1.06 1.26 1.40 1.48 1.52 1.64 1.75 1.81 1.83 1.81 1.82 1.86 1.90 1.92 1.98 2.08 2.08 2.04 2.12 1.93 1.87 1.82 1.81 1.70 1.68 1.76 1.93
0.59 0.53 0.54 0.52 0.56 0.49 0.40 0.36 0.37 0.37 0.36 0.42 0.50 0.51 1.25 1.28 1.07 0.98 1.13 1.33 1.43 1.51 1.63 1.70 1.78 1.79 1.80 1.68 1.64 1.74 1.89 1.90 1.95 2.03 2.07 2.16 2.08 1.94 1.99 1.87 1.90 1.95 1.81 1.68
0.60 0.64 0.47 0.41 0.45 0.50 0.42 0.47 0.45 0.43 0.41 0.44 0.53 0.69 0.92 1.03 1.03 0.95 1.06 1.27 1.40 1.53 1.63 1.70 1.72 1.74 1.81 1.75 1.74 1.76 1.88 1.98 1.89 1.92 2.00 2.04 2.06 1.98 1.98 1.97 1.91 2.01 1.90 1.78
0.54 0.54 0.53 0.55 0.52 0.31 0.64 0.78 0.70 0.75 0.70 0.68 0.81 0.91 1.43 1.06 0.95 0.99 1.16 1.22 1.31 1.41 1.51 1.62 1.71 1.75 1.80 1.85 1.83 1.92 1.95 1.96 1.93 1.92 1.94 1.96 1.97 1.95 1.93 1.97 2.05 2.12 2.09 1.90
0.57 0.55 0.52 0.50 0.47 0.56 0.57 0.60 0.63 0.59 0.64 0.69 0.73 0.95 1.00 0.98 0.90 0.82 1.09 1.29 1.31 1.36 1.45 1.53 1.62 1.68 1.73 1.72 1.81 1.82 1.82 1.77 1.75 1.77 1.87 1.93 1.96 1.90 1.86 1.83 1.99 2.08 2.02 2.01
0.53 0.56 0.55 0.48 0.41 0.45 0.64 0.68 0.67 0.65 0.52 0.93 0.95 0.85 0.82 0.77 0.56 0.73 1.00 1.17 1.21 1.28 1.34 1.39 1.48 1.56 1.61 1.67 1.74 1.74 1.69 1.66 1.59 1.64 1.70 1.91 1.87 1.72 1.76 1.81 1.90 1.98 1.98 1.93
0.43 0.45 0.40 0.44 0.41 0.59 0.71 0.71 0.68 0.48 0.60 0.80 0.99 0.95 0.95 0.81 0.92 1.04 1.12 1.14 1.20 1.24 1.28 1.38 1.41 1.40 1.45 1.55 1.55 1.52 1.56 1.53 1.64 1.64 1.71 1.84 1.79 1.71 1.75 1.77 1.86 1.85 1.87 1.90
0.49 0.43 0.40 0.42 0.43 0.43 0.70 0.67 0.61 0.78 0.83 0.81 0.96 1.06 0.99 1.01 1.04 1.07 1.10 1.12 1.17 1.18 1.20 1.27 1.31 1.32 1.37 1.40 1.43 1.40 1.39 1.48 1.53 1.58 1.64 1.65 1.63 1.61 1.60 1.63 1.65 1.69 1.70 1.69
0.40 0.55 0.55 0.53 0.54 0.70 0.71 0.70 0.70 0.77 0.84 0.85 0.83 1.00 1.06 0.99 1.04 1.08 1.08 1.14 1.19 1.20 1.19 1.20 1.19 1.21 1.26 1.30 1.33 1.27 1.33 1.39 1.45 1.45 1.46 1.56 1.61 1.60 1.60 1.56 1.53 1.44 1.37 1.27
0.43 0.50 0.43 0.52 0.58 0.63 0.65 0.66 0.68 0.71 0.72 0.81 0.90 0.98 1.06 0.98 1.06 1.13 1.17 1.17 1.19 1.20 1.19 1.19 1.13 1.10 1.06 1.10 1.12 1.11 1.14 1.15 1.16 1.17 1.25 1.36 1.46 1.44 1.44 1.37 1.27 1.15 1.07 1.00
0.46 0.47 0.40 0.48 0.66 0.64 0.62 0.66 0.65 0.66 0.69 0.74 0.81 0.86 0.95 1.01 1.00 1.06 1.12 1.15 1.17 1.17 1.16 1.14 1.09 1.01 1.00 1.05 1.05 1.07 1.08 1.09 1.05 1.01 0.97 0.92 0.92 1.04 1.04 0.98 0.91 0.83 0.86 0.87
0.42 0.33 0.34 0.40 0.53 0.52 0.63 0.64 0.60 0.60 0.65 0.71 0.74 0.80 0.91 0.94 0.96 1.04 1.08 1.11 1.13 1.14 1.15 1.10 1.05 0.99 0.95 0.95 0.92 0.90 0.89 0.90 0.87 0.80 0.79 0.80 0.80 0.81 0.80 0.77 0.71 0.68 0.67 0.70
Wind_Speed
22 21 23 22 22 11 11 14 14 13 11 16 15 16 20 20 18 19 22 21 19 18 17 15 15 14 13 13 12 11 11 12 12 12 11 11 11 11 11 12 11 11 10 10
20 23 22 22 19 16 15 10 12 11 14 11 12 16 18 20 19 21 22 22 21 19 18 17 15 15 14 13 13 12 11 12 11 10 9 10 10 10 11 10 11 10 10 10
21 19 23 23 21 18 18 12 17 15 15 14 12 11 17 19 22 23 21 22 22 20 19 17 16 16 15 14 13 12 12 12 11 9 10 10 10 10 10 9 10 10 9 9
23 18 23 23 21 20 19 14 12 18 20 10 17 5 14 16 23 25 22 23 23 22 18 21 18 16 16 15 13 13 13 12 11 11 10 10 9 9 8 9 9 9 9 8
23 21 22 24 23 22 13 15 15 20 16 4 15 8 8 16 23 26 24 26 25 23 24 22 19 18 16 16 15 13 13 12 12 11 11 10 9 8 8 8 9 9 9 9
21 22 21 24 24 21 13 16 14 11 10 15 11 10 11 13 25 24 25 27 28 27 23 23 20 20 17 16 16 14 14 13 12 12 10 9 9 8 8 8 8 8 9 9
23 20 24 23 25 21 20 18 13 13 13 8 16 11 9 18 24 23 24 27 26 26 26 24 21 22 20 18 17 16 15 14 13 12 11 10 9 8 7 8 7 8 8 9
22 20 24 24 26 22 24 21 14 13 13 12 10 9 9 16 20 21 20 26 25 25 27 26 24 24 19 20 18 17 16 15 14 13 12 11 10 8 8 8 7 7 8 8
20 22 24 24 24 25 24 25 23 15 17 8 11 7 9 13 17 19 21 25 27 27 26 27 25 24 21 22 19 18 17 16 16 14 13 12 11 10 8 8 8 8 8 8
10 19 23 26 24 26 23 25 23 20 18 15 10 12 11 17 19 19 21 24 27 30 26 28 26 24 24 22 21 19 17 17 16 15 14 13 13 12 10 9 9 8 8 8
16 17 19 22 28 27 25 22 26 22 21 10 13 9 11 18 17 19 21 23 23 24 28 26 27 24 22 25 21 21 19 17 17 17 15 15 14 13 13 12 11 10 10 10
23 12 19 24 23 27 25 26 23 23 24 19 10 14 8 7 14 17 18 21 22 25 25 26 26 24 25 22 23 22 21 19 18 17 17 16 15 15 14 14 13 12 11 12
15 20 17 13 23 25 27 25 27 26 23 21 18 10 10 7 12 15 19 20 19 22 21 25 27 23 24 22 23 22 21 20 18 18 19 19 18 17 16 16 15 14 13 12
16 18 17 14 14 20 26 26 27 25 23 22 18 13 15 13 13 14 15 16 18 20 21 22 25 24 22 23 22 23 22 21 21 23 21 21 21 20 19 18 18 17 16 15
17 21 17 12 21 19 25 27 25 27 24 22 12 7 17 20 16 16 17 18 19 20 20 22 23 24 23 20 21 24 24 23 22 24 24 23 22 21 20 20 19 20 19 18
13 12 18 14 14 14 18 24 24 24 26 21 11 21 7 20 20 18 16 17 20 19 22 23 23 24 25 18 21 18 24 21 21 23 24 23 22 21 21 20 20 20 21 21
11 10 15 16 15 13 15 14 17 17 20 15 10 16 20 9 11 14 14 15 17 19 20 20 22 23 24 21 21 20 20 20 15 20 24 25 25 25 23 23 22 22 22 21
12 12 12 10 13 23 12 9 11 10 14 17 13 16 15 9 11 11 14 17 17 17 17 19 20 21 20 19 18 17 18 19 17 16 16 16 21 26 25 22 23 23 22 22
12 13 14 11 12 15 17 14 9 12 13 15 18 16 18 12 10 13 16 18 18 17 17 18 19 20 20 19 19 17 17 17 16 15 16 15 15 18 20 20 21 21 20 20
10 13 15 13 16 9 10 10 13 16 22 7 14 17 18 18 17 17 18 18 18 18 19 19 19 19 18 18 18 18 17 17 17 16 16 15 14 14 15 16 17 17 16 18
11 12 12 9 12 9 10 16 17 18 14 14 12 15 17 19 15 17 18 19 19 18 18 19 19 19 18 18 18 18 18 18 19 19 17 16 15 13 12 13 15 16 15 14
5 10 12 12 12 8 10 12 12 11 12 12 13 13 16 17 18 19 20 20 20 20 20 19 19 19 19 19 19 19 20 20 20 19 20 19 18 17 15 15 14 14 14 14
9 7 8 9 10 10 6 6 9 11 12 13 14 13 15 17 19 20 20 20 21 20 20 20 20 20 20 20 19 19 19 19 19 20 20 21 20 19 18 17 17 16 16 16
8 8 11 10 13 12 11 10 9 10 11 12 14 16 16 16 18 19 20 20 21 21 21 21 20 20 19 20 20 20 20 19 20 19 20 20 21 21 20 19 18 18 18 18
4 7 9 9 9 9 12 12 12 11 12 12 13 15 17 18 20 20 21 20 21 21 20 20 20 20 19 20 20 20 21 21 20 20 20 20 21 23 22 21 21 20 20 20
8 8 8 6 6 10 8 10 12 13 13 14 13 15 16 18 20 21 22 22 22 21 21 21 20 20 20 21 21 21 21 22 22 22 23 22 22 23 23 24 24 23 23 23
Wind_Direction
203 204 206 205 209 220 226 228 178 187 180 177 182 185 182 185 190 194 185 182 180 176 170 170 167 166 163 160 159 158 150 147 145 141 142 142 142 143 146 145 147 149 147 146
200 211 211 213 210 224 221 212 162 167 173 169 177 188 191 197 200 194 187 190 182 179 174 176 173 171 168 165 165 164 163 156 153 150 150 149 149 146 151 153 156 156 155 152
208 211 214 211 211 213 221 223 194 191 187 207 194 194 190 200 205 204 200 194 188 182 181 185 181 180 175 172 172 172 169 168 164 158 156 152 150 152 155 156 159 164 162 164
215 212 205 209 213 210 219 215 182 188 182 201 200 186 195 192 198 208 200 197 195 187 193 187 187 184 183 179 177 177 175 173 170 163 158 156 158 158 163 166 166 167 170 172
207 208 209 209 209 207 218 218 181 221 185 197 203 230 178 189 194 198 205 197 203 197 195 193 188 188 186 184 183 180 181 179 178 168 161 156 163 164 166 163 167 170 175 176
215 215 210 212 209 208 212 217 218 229 210 222 201 211 194 193 192 202 206 201 200 199 197 193 197 191 189 187 187 184 183 182 181 179 174 174 167 163 163 170 175 178 176 179
215 216 211 211 208 206 210 210 206 220 219 230 187 222 212 193 193 199 197 202 201 198 197 193 194 193 193 189 191 188 189 187 186 186 184 179 176 173 173 176 179 180 180 182
212 208 207 206 214 206 210 210 208 210 220 211 203 233 196 194 190 197 201 201 204 205 200 197 195 190 195 196 193 193 192 193 193 192 193 193 190 187 185 182 180 181 185 187
211 227 204 208 212 216 210 216 223 244 251 218 237 195 196 195 190 195 196 193 205 203 203 199 196 194 201 199 196 196 196 197 199 199 199 200 199 199 195 192 191 188 189 191
241 213 204 208 210 218 224 215 221 223 243 250 193 229 192 198 207 205 200 201 203 204 204 201 198 202 201 202 196 199 199 202 203 205 206 206 208 208 208 205 202 205 201 201
231 221 205 212 211 212 213 223 219 227 228 243 238 230 236 195 201 207 205 204 204 205 208 212 199 197 206 198 199 201 204 206 208 211 212 213 214 214 214 214 214 215 218 211
218 228 225 212 217 217 219 217 222 222 226 238 249 239 267 174 194 199 200 196 197 196 206 204 203 208 199 206 206 210 211 210 214 215 218 219 219 220 219 220 219 220 221 215
213 218 220 233 206 212 220 217 221 222 232 235 241 232 235 230 207 201 194 200 198 202 206 203 204 207 201 206 209 211 213 217 219 225 225 224 224 225 225 224 224 224 223 223
217 220 222 219 215 222 218 222 217 222 218 231 232 188 210 200 194 200 197 200 205 202 206 203 203 208 207 208 214 218 220 227 235 234 233 228 228 229 229 229 228 228 228 229
216 226 239 208 230 245 210 215 217 221 229 225 235 236 205 209 199 199 206 203 205 207 202 203 206 205 207 212 222 226 229 235 242 235 231 229 228 229 230 232 233 233 233 234
218 237 223 199 213 232 200 207 215 219 226 230 227 229 242 185 186 191 199 206 208 208 207 210 206 207 214 225 225 228 223 234 241 233 230 232 230 230 231 232 237 237 236 236
226 214 211 223 199 201 205 209 220 220 214 227 245 228 235 206 196 192 200 208 207 208 207 207 212 218 223 227 227 226 225 232 243 230 231 232 234 234 236 239 241 237 236 238
228 216 219 219 235 220 200 232 219 208 216 216 226 219 202 160 186 200 208 208 208 209 210 214 217 217 220 223 224 227 229 232 232 226 226 232 231 233 236 241 241 238 237 236
207 204 220 222 216 227 193 199 225 235 219 225 230 217 227 228 213 218 217 214 211 211 214 215 219 219 223 227 229 227 225 229 228 230 229 232 237 231 238 240 236 231 232 235
191 205 229 216 242 230 203 231 230 234 214 352 224 222 227 230 235 225 218 214 215 216 218 217 216 219 223 226 228 229 231 230 227 229 231 234 232 236 230 222 220 221 233 235
219 224 226 229 225 226 234 234 252 232 231 249 239 235 227 230 239 213 214 216 218 217 215 215 218 222 225 227 229 229 229 232 234 235 239 236 228 226 220 213 218 228 232 234
227 237 233 229 243 228 254 229 223 227 235 244 242 238 227 229 229 222 220 218 217 217 218 220 222 225 228 231 232 232 234 235 235 234 236 232 230 231 227 228 227 229 231 233
238 241 230 247 230 218 229 216 225 235 236 241 242 239 231 233 225 223 222 220 219 220 223 225 227 228 230 231 232 231 233 233 232 233 233 230 229 228 230 231 232 233 235 236
229 240 232 238 227 228 231 233 238 242 245 248 244 239 233 227 222 221 221 222 222 223 225 226 226 227 229 230 231 231 232 234 231 231 230 230 229 229 229 234 233 237 239 241
242 213 229 227 220 233 232 234 244 246 249 249 248 242 237 228 226 226 226 225 225 225 225 226 227 227 228 230 232 233 234 234 233 232 231 232 232 233 235 237 239 241 243 245
224 230 225 239 229 230 225 242 248 249 251 254 251 245 240 235 230 230 229 227 227 227 227 227 228 228 230 231 233 235 236 236 236 236 235 235 236 237 238 239 242 246 248 250